Weather History for Oklahoma City, OK

Change the Weather History Date:

Sunday, August 5, 2012

  Actual Average Record
Temperature  
Mean Temperature 88 °F 84 °F  
Max Temperature 99 °F 95 °F 110 °F (2011)
Min Temperature 77 °F 72 °F 55 °F (1894)
Cooling Degree Days 23 19  
Month to date cooling degree days 150 95  
Year to date cooling degree days 1647 1294  
Since 1 June cooling degree days 1263  
Growing Degree Days 38 (Base 50)    
Moisture  
Dew Point 63 °F    
Average Humidity 47    
Maximum Humidity 64    
Minimum Humidity 30    
Precipitation  
Precipitation 0.00 in 0.12 in 1.24 in (1999)
Month to date precipitation 0.00 0.51  
Year to date precipitation 19.58 22.12  
Sea Level Pressure  
Sea Level Pressure 30.07 in    
Wind  
Wind Speed 11 mph (NNE)    
Max Wind Speed 24 mph    
Max Gust Speed 29 mph    
Visibility 10 miles    
Events      
T = Trace of Precipitation, MM = Missing Value Source: NWS Daily Summary

Daily Weather History Graph

Daily Weather History Graph

Search for Another Location

Airport:

Trip Planner

Search our weather history database for the weather conditions in past years. The results will help you decide how hot, cold, wet, or windy it might be!

Date:

Astronomy

Aug. 05, 2012 Rise Set
Actual Time 6:42 AM CDT 8:29 PM CDT
Civil Twilight 6:14 AM CDT 8:57 PM CDT
Nautical Twilight 5:41 AM CDT 9:30 PM CDT
Astronomical Twilight 5:05 AM CDT 10:05 PM CDT
Moon 10:21 PM CDT (8/5) 10:21 AM CDT (8/5)
Length of Visible Light 14h 42m
Length of Day
13h 47m
Waning Gibbous, 86% of the Moon is Illuminated
Aug 5
Waning Gibbous
Aug 9
Last Quarter
Aug 17
New
Aug 24
First Quarter
Aug 31
Full

Hourly Weather History & Observations

Time (CDT) Temp. Heat Index Dew Point Humidity Pressure Visibility Wind Dir Wind Speed Gust Speed Precip Events Conditions
12:52 AM 86.0 °F 86.8 °F 63.0 °F 46% 29.95 in 10.0 mi WNW 8.1 mph - N/A   Scattered Clouds
1:52 AM 84.9 °F 86.1 °F 64.0 °F 49% 29.98 in 10.0 mi North 15.0 mph - N/A   Scattered Clouds
2:52 AM 81.0 °F 82.7 °F 64.9 °F 58% 30.02 in 10.0 mi North 19.6 mph 27.6 mph N/A   Scattered Clouds
3:52 AM 81.0 °F 82.7 °F 64.9 °F 58% 30.05 in 10.0 mi NE 17.3 mph 27.6 mph N/A   Mostly Cloudy
4:52 AM 81.0 °F 82.5 °F 64.0 °F 56% 30.06 in 10.0 mi ENE 12.7 mph - N/A   Mostly Cloudy
5:52 AM 80.1 °F 81.7 °F 64.0 °F 58% 30.08 in 10.0 mi North 13.8 mph 20.7 mph N/A   Scattered Clouds
6:52 AM 77.0 °F - 64.9 °F 66% 30.09 in 10.0 mi North 15.0 mph - N/A   Scattered Clouds
7:52 AM 77.0 °F - 64.9 °F 66% 30.11 in 10.0 mi North 8.1 mph - N/A   Mostly Cloudy
8:52 AM 79.0 °F - 64.9 °F 62% 30.13 in 10.0 mi NNE 8.1 mph - N/A   Mostly Cloudy
9:52 AM 80.1 °F 81.9 °F 64.9 °F 60% 30.14 in 10.0 mi North 10.4 mph - N/A   Mostly Cloudy
10:52 AM 86.0 °F 88.2 °F 66.2 °F 51% 30.19 in 10.0 mi NE 10.4 mph - N/A   Mostly Cloudy
11:52 AM 90.0 °F 91.7 °F 64.9 °F 43% 30.12 in 10.0 mi NE 9.2 mph - N/A   Scattered Clouds
12:52 PM 93.9 °F 96.1 °F 64.9 °F 38% 30.11 in 10.0 mi NE 9.2 mph - N/A   Scattered Clouds
1:52 PM 93.9 °F 95.2 °F 63.0 °F 36% 30.09 in 10.0 mi Variable 4.6 mph - N/A   Scattered Clouds
2:52 PM 96.8 °F 98.0 °F 62.6 °F 32% 30.13 in 10.0 mi NNE 11.5 mph 18.4 mph N/A   Mostly Cloudy
3:52 PM 97.0 °F 98.3 °F 63.0 °F 32% 30.06 in 10.0 mi North 8.1 mph - N/A   Mostly Cloudy
4:52 PM 97.0 °F 96.9 °F 60.1 °F 29% 30.04 in 10.0 mi Variable 4.6 mph 18.4 mph N/A   Mostly Cloudy
5:52 PM 97.0 °F 96.9 °F 60.1 °F 29% 30.03 in 10.0 mi NNW 6.9 mph - N/A   Scattered Clouds
6:52 PM 96.1 °F 97.3 °F 63.0 °F 33% 30.02 in 10.0 mi NNW 9.2 mph - N/A   Scattered Clouds
7:52 PM 93.9 °F 94.0 °F 61.0 °F 33% 30.02 in 10.0 mi NNE 10.4 mph - N/A   Scattered Clouds
8:52 PM 91.0 °F 91.5 °F 62.1 °F 38% 30.04 in 10.0 mi NE 11.5 mph - N/A   Scattered Clouds
9:52 PM 88.0 °F 87.6 °F 60.1 °F 39% 30.05 in 10.0 mi ENE 11.5 mph - N/A   Clear
10:52 PM 86.0 °F 85.4 °F 59.0 °F 40% 30.06 in 10.0 mi ENE 10.4 mph - N/A   Clear
11:52 PM 84.9 °F 84.2 °F 57.9 °F 40% 30.06 in 10.0 mi ENE 9.2 mph - N/A   Clear